Location: Bay Shore Mobile Home Park
(38.5762°N, 75.0841°W)
Time: 05:55:00
(UTC+00:00)

Hubble Space Telescope - Pass Details

Date: 29 January 2026
Orbit: 478 x 480 km, 28.5° (Epoch: 8 February)

Event Time Altitude Azimuth Distance (km) Brightness Sun altitude
Rises 00:24:26 0° 249° (WSW) 2,513 5.4 -24.8°
Reaches altitude 10° 00:27:24 10° 224° (SW) 1,636 3.8 -25.4°
Enters shadow 00:29:10 14° 197° (SSW) 1,391 3.1 -25.7°
